{"data":{"norad_id":66714,"intl_designator":"2025-276BA","name":"FLOCK 4H-11","alt_names":[],"object_type":"PAYLOAD","status":"ACTIVE","operator":null,"country":"US","launch_date":"2025-11-28","launch_site_code":"AFWTR","launch_vehicle":null,"mission":null,"orbit_class":"UNKNOWN","rcs_meters":null,"size_class":null,"mass_kg":null,"dimensions":null,"purposes":["earth_obs"],"wikipedia_slug":null,"has_3d_model":false,"image_url":null,"decayed_at":null,"tle_current":{"epoch":"2026-08-27T03:59:39.079392Z","epoch_age_seconds":2124443,"freshness":"OLD","line1":"1 66714U 25276BA  26239.16642453  .00014395  00000+0  59067-3 0  9990","line2":"2 66714  97.4157 312.3053 0004290 116.7878 243.3798 15.24329840 41255","mean_motion":15.2432984,"eccentricity":0.000429,"inclination_deg":97.4157,"raan_deg":312.3053,"arg_perigee_deg":116.7878,"mean_anomaly_deg":243.3798,"bstar":0.00059067,"rev_number":4125,"period_min":94.467743280549,"perigee_km":489.8509012012,"apogee_km":495.74616388813,"semimajor_km":6870.9355325447,"source":"CELESTRAK","updated_at":"2026-08-27T09:00:34.316854Z"}}}